IRIDIUM 51 [-] (25262 NORAD) Tracking and Keplerian Element Data

This shows tracking and keplerian element data for the satellite.

Feedback or suggestion? Click here.




ElementValue
Catalog25262
NameIRIDIUM 51 [-]
Epoch Orbit6895
Epoch Day198.88479496
Epoch Year2018
RAAN144.4922
Inclination86.4017
Eccentricity0.0208454
Argument of Perigee10.4853
Mean Anonmoly350.0616
Mean Motion14.88069826
Decay Rate1.126E-05
L11 25262U 98018A 18198.88479496 .00001126 00000-0 78743-4 0 9998
L22 25262 86.4017 144.4922 0208454 10.4853 350.0616 14.88069826 68956

Live tracking and technical data element details for IRIDIUM 51 [-] (NORAD 25262). IRIDIUM 51 [-] can be tracked NOW for your location showing map with azimuth and elevation plus other details from your city location.

Track the satellite on the map from your city or location and see movement details for azimuth, elevation, latitude, longitude, range, height, and movement on the map or in text.







IsCatalogInMostPopularTable: catalog: 25262, numindb: 34
Update: records affected: 1



GetName: 25262 IRIDIUM 51 [-]

Hit Count: updated at: Fri, 20 Jul 2018 07:03:43 GMT